Home   Weather   Coffs Harbour   Past weeks

Flag for Australia Past Weather in Coffs Harbour, New South Wales, Australia — Yesterday and Last 2 Weeks

Now
101 °F

Extremely hot.


Feels Like: 98 °F
Forecast: 71 / 90 °F
Wind: 18 mph from Northwest

Location: Tamworth Airport AWS

Current Time: Dec 5, 2016 at 3:40:48 pm

Latest Report: Dec 5, 2016 at 3:00 pm


Visibility: N/A

Pressure: 29.75 "Hg

Humidity: 18%

Dew Point: 50 °F

Location of Coffs HarbourLocation

Past Weather in Coffs Harbour — Graph

°F

Coffs Harbour Temperature Yesterday

Maximum temperature yesterday: 100 °F (at 5:00 pm)
Minimum temperature yesterday: 64 °F (at 5:00 am)
Average temperature yesterday: 82 °F

High & Low Weather Summary for the Past Weeks

 TemperatureHumidityPressure
High104 °F (Dec 3, 3:00 pm)84% (Nov 23, 5:00 am)30.13 "Hg (Nov 23, 5:00 am)
Low46 °F (Nov 26, 6:00 am)10% (Nov 26, 5:00 pm)29.66 "Hg (Dec 1, 5:00 pm)
Average76 °F39%29.87 "Hg
* Reported Nov 20 2:00 pm — Dec 5 2:00 pm, Coffs Harbour, Weather by CustomWeather, © 2016

Note: Actual official high and low records may vary slightly from our data, if they occured in-between our weather recording intervals... More about our weather records

Advertising

Coffs Harbour Weather History for the Previous 24 Hours

Scroll right to see more
 ConditionsComfort  
Time TempWeatherWind HumidityBarometerVisibility
2:00 pm
Mon, Dec 5
103 °FExtremely hot.17 mph19%29.77 "HgN/A
1:00 pm100 °FExtremely hot.14 mph25%29.80 "HgN/A
12:00 pm96 °FExtremely hot.14 mph30%29.82 "HgN/A
11:00 am95 °FExtremely hot.13 mph32%29.84 "HgN/A
10:00 am90 °FHot.16 mph38%29.85 "HgN/A
9:00 am86 °FOvercast.18 mph46%29.87 "HgN/A
8:00 am84 °FWarm.16 mph48%29.87 "HgN/A
7:00 am79 °FWarm.7 mph52%29.86 "HgN/A
6:00 am76 °FOvercast.7 mph53%29.83 "HgN/A
5:00 am75 °FMild.6 mph56%29.85 "HgN/A
4:00 am72 °FMild.5 mph66%29.81 "HgN/A
3:00 am72 °FOvercast.3 mph61%29.81 "HgN/A
2:00 am81 °FWarm.8 mph44%29.81 "HgN/A
1:00 am82 °FWarm.9 mph46%29.82 "HgN/A
12:00 am83 °FWarm.12 mph45%29.84 "HgN/A
11:00 pm
Sun, Dec 4
82 °FWarm.No wind46%29.85 "HgN/A
10:00 pm85 °FPleasantly warm.8 mph37%29.84 "HgN/A
9:00 pm84 °FPleasantly warm.10 mph31%29.81 "HgN/A
8:00 pm86 °FPleasantly warm.8 mph26%29.80 "HgN/A
7:00 pm96 °FExtremely hot.7 mph17%29.80 "HgN/A
6:00 pm98 °FPassing clouds.3 mph15%29.80 "HgN/A
5:00 pm100 °FExtremely hot.7 mph14%29.80 "HgN/A
4:00 pm99 °FExtremely hot.6 mph17%29.82 "HgN/A
3:00 pm98 °FPartly sunny.6 mph17%29.84 "HgN/A
Weather by CustomWeather, © 2016

See weather overviewHow to use our weather pages